TimeCST,TemperatureF,Dew PointF,Humidity,Sea Level PressureIn,VisibilityMPH,Wind Direction,Wind SpeedMPH,Gust SpeedMPH,PrecipitationIn,Events,Conditions,WindDirDegrees,DateUTC
12:55 AM,23.0,16.0,74,30.33,10.0,South,6.9,-,N/A,,Clear,170,2013-01-10 06:55:00
1:55 AM,24.1,16.0,71,30.33,10.0,SSE,8.1,-,N/A,,Clear,150,2013-01-10 07:55:00
2:55 AM,25.0,16.0,69,30.31,10.0,SE,10.4,-,N/A,,Clear,140,2013-01-10 08:55:00
3:55 AM,26.1,16.0,66,30.30,10.0,SSE,10.4,-,N/A,,Clear,160,2013-01-10 09:55:00
4:55 AM,26.1,16.0,66,30.27,10.0,South,11.5,-,N/A,,Clear,170,2013-01-10 10:55:00
5:55 AM,27.0,16.0,63,30.25,10.0,South,10.4,-,N/A,,Clear,170,2013-01-10 11:55:00
6:55 AM,30.0,18.0,61,30.24,10.0,South,16.1,-,N/A,,Clear,190,2013-01-10 12:55:00
7:55 AM,30.0,19.0,64,30.25,10.0,South,13.8,-,N/A,,Clear,190,2013-01-10 13:55:00
8:55 AM,32.0,19.9,61,30.23,10.0,South,15.0,-,N/A,,Clear,190,2013-01-10 14:55:00
9:55 AM,35.1,21.0,57,30.22,10.0,SSW,16.1,23.0,N/A,,Clear,200,2013-01-10 15:55:00
10:55 AM,39.0,19.9,46,30.19,10.0,SSW,18.4,27.6,N/A,,Clear,200,2013-01-10 16:55:00
11:55 AM,39.9,19.9,45,30.15,10.0,SSW,17.3,26.5,N/A,,Clear,200,2013-01-10 17:55:00
12:55 PM,41.0,19.9,43,30.12,10.0,South,15.0,25.3,N/A,,Clear,180,2013-01-10 18:55:00
1:55 PM,42.1,19.0,40,30.10,10.0,South,11.5,-,N/A,,Clear,170,2013-01-10 19:55:00
2:55 PM,42.1,17.1,37,30.09,10.0,South,13.8,-,N/A,,Partly Cloudy,180,2013-01-10 20:55:00
3:55 PM,39.9,17.1,40,30.08,10.0,SSE,11.5,-,N/A,,Partly Cloudy,160,2013-01-10 21:55:00
4:55 PM,39.0,17.1,41,30.05,10.0,SE,10.4,-,N/A,,Partly Cloudy,140,2013-01-10 22:55:00
5:55 PM,37.9,16.0,41,30.00,10.0,SSE,10.4,-,N/A,,Mostly Cloudy,150,2013-01-10 23:55:00
6:55 PM,39.0,15.1,38,29.97,10.0,SSE,9.2,-,N/A,,Overcast,150,2013-01-11 00:55:00
7:55 PM,37.0,19.9,50,29.93,10.0,SE,10.4,-,0.00,Rain,Light Rain,140,2013-01-11 01:55:00
8:55 PM,34.0,25.0,70,29.89,7.0,SE,11.5,-,0.03,Rain,Light Rain,140,2013-01-11 02:55:00
9:52 PM,33.8,28.4,81,29.78,3.0,ESE,11.5,-,0.09,Rain,Light Freezing Rain,120,2013-01-11 03:52:00
9:55 PM,33.1,28.0,82,29.83,3.0,ESE,11.5,-,0.10,Rain,Light Freezing Rain,120,2013-01-11 03:55:00
10:06 PM,33.8,28.4,81,29.77,4.0,ESE,13.8,-,0.03,Rain,Light Freezing Rain,120,2013-01-11 04:06:00
10:13 PM,33.8,28.4,81,29.77,5.0,SE,12.7,-,N/A,Rain,Light Freezing Rain,130,2013-01-11 04:13:00
10:48 PM,33.8,30.2,87,29.75,3.0,SE,13.8,-,0.09,Rain,Light Freezing Rain,130,2013-01-11 04:48:00
10:55 PM,33.1,30.0,89,29.79,3.0,SE,12.7,-,0.10,Rain,Light Freezing Rain,130,2013-01-11 04:55:00
11:21 PM,33.8,30.2,87,29.73,3.0,SE,12.7,-,0.02,Rain,Light Freezing Rain,130,2013-01-11 05:21:00
11:46 PM,33.8,30.2,87,29.71,2.5,ESE,11.5,-,0.05,Rain,Light Freezing Rain,120,2013-01-11 05:46:00
11:55 PM,33.1,30.9,92,29.75,3.0,ESE,10.4,-,0.05,Rain,Light Freezing Rain,120,2013-01-11 05:55:00